Weather History for KAPC - October, 2014

Change the Weather History Date:

Wednesday, October 8, 2014

  Actual Average Record
Temperature  
Mean Temperature 66 °F 60 °F  
Max Temperature 86 °F 76 °F 90 °F (1999)
Min Temperature 46 °F 44 °F 40 °F (2010)
Degree Days  
Heating Degree Days 0    
Month to date heating degree days 3  
Since 1 July heating degree days 47  
Cooling Degree Days 1    
Month to date cooling degree days 25  
Year to date cooling degree days 261  
Growing Degree Days 16 (Base 50)    
Moisture  
Dew Point 52 °F    
Average Humidity 65    
Maximum Humidity 100    
Minimum Humidity 29    
Precipitation  
Precipitation 0.00 in - 0.39 in (1945)
Month to date precipitation 0.00  
Year to date precipitation 8.65  
Since 1 July precipitation 0.38  
Sea Level Pressure  
Sea Level Pressure 29.85 in    
Wind  
Wind Speed 6 mph (SSW)    
Max Wind Speed 18 mph    
Max Gust Speed 23 mph    
Visibility 9 miles    
Events      
T = Trace of Precipitation, MM = Missing Value Source: NWS Daily Summary

Daily Weather History Graph

Daily Weather History Graph

Search for Another Location

Airport or City:

Trip Planner

Search our weather history database for the weather conditions in past years. The results will help you decide how hot, cold, wet, or windy it might be!

Date:

Astronomy

Oct. 08, 2014 Rise Set
Actual Time 7:11 AM PDT 6:41 PM PDT
Civil Twilight 6:44 AM PDT 7:07 PM PDT
Nautical Twilight 6:14 AM PDT 7:38 PM PDT
Astronomical Twilight 5:43 AM PDT 8:08 PM PDT
Moon 7:00 PM PDT (10/8) 7:23 AM PDT (10/8)
Length of Visible Light 12h 22m
Length of Day
11h 29m
Full, 100% of the Moon is Illuminated
Oct 8
Full
Oct 15
Last Quarter
Oct 23
New
Oct 30
First Quarter
Nov 6
Full

Hourly Weather History & Observations

Time (PDT) Temp. Heat Index Dew Point Humidity Pressure Visibility Wind Dir Wind Speed Gust Speed Precip Events Conditions
12:54 AM 53.1 °F - 52.0 °F 96% 29.86 in 10.0 mi ESE 4.6 mph - N/A   Clear
1:54 AM 53.1 °F - 52.0 °F 96% 29.87 in 10.0 mi Calm Calm - N/A   Clear
2:54 AM 52.0 °F - 52.0 °F 100% 29.87 in 10.0 mi Calm Calm - N/A   Clear
3:54 AM 50.0 °F - 50.0 °F 100% 29.87 in 9.0 mi ESE 3.5 mph - N/A   Clear
4:37 AM 48.9 °F - 48.9 °F 100% 29.89 in 2.0 mi Calm Calm - N/A   Partly Cloudy
4:45 AM 48.9 °F - 48.9 °F 100% 29.89 in 1.5 mi Calm Calm - N/A   Mostly Cloudy
4:48 AM 48.2 °F - 48.2 °F 100% 29.89 in 2.5 mi North 3.5 mph - N/A   Scattered Clouds
4:54 AM 50.0 °F - 48.9 °F 96% 29.86 in 10.0 mi NNE 3.5 mph - N/A   Scattered Clouds
5:54 AM 48.9 °F - 48.9 °F 100% 29.87 in 10.0 mi North 4.6 mph - N/A   Clear
6:54 AM 50.0 °F - 48.9 °F 96% 29.88 in 10.0 mi North 4.6 mph - N/A   Clear
7:54 AM 51.1 °F - 51.1 °F 100% 29.88 in 10.0 mi NE 3.5 mph - N/A   Clear
8:54 AM 57.9 °F - 54.0 °F 87% 29.90 in 10.0 mi North 3.5 mph - N/A   Clear
9:54 AM 63.0 °F - 55.9 °F 78% 29.90 in 10.0 mi Variable 3.5 mph - N/A   Clear
10:54 AM 68.0 °F - 57.0 °F 68% 29.90 in - SW 5.8 mph - N/A   Clear
11:54 AM - - - N/A% 29.89 in 10.0 mi North - - N/A   Clear
12:54 PM 75.9 °F - 54.0 °F 46% 29.87 in 10.0 mi SSW 6.9 mph - N/A   Clear
1:54 PM 79.0 °F - 55.0 °F 44% 29.84 in 10.0 mi SSW 8.1 mph - N/A   Clear
2:54 PM 81.0 °F 80.5 °F 54.0 °F 39% 29.81 in 10.0 mi SSW 11.5 mph - N/A   Clear
3:54 PM 81.0 °F 80.8 °F 55.9 °F 42% 29.79 in 10.0 mi SSW 16.1 mph - N/A   Clear
4:54 PM 84.9 °F - 48.9 °F 29% 29.78 in 10.0 mi WSW 11.5 mph - N/A   Clear
5:54 PM 80.1 °F - 48.9 °F 34% 29.79 in 10.0 mi South 9.2 mph - N/A   Clear
6:24 PM 75.9 °F - 50.0 °F 40% 29.81 in 10.0 mi SW 12.7 mph 23.0 mph N/A   Clear
6:54 PM 75.0 °F - 48.9 °F 40% 29.80 in 10.0 mi WSW 10.4 mph - N/A   Clear
7:54 PM 68.0 °F - 52.0 °F 56% 29.82 in 10.0 mi South 8.1 mph - N/A   Clear
8:54 PM 64.9 °F - 53.1 °F 65% 29.83 in 10.0 mi SSW 9.2 mph - N/A   Clear
9:54 PM 63.0 °F - 55.0 °F 75% 29.85 in 10.0 mi South 4.6 mph - N/A   Clear
10:54 PM 60.1 °F - 55.0 °F 83% 29.86 in 10.0 mi South 5.8 mph - N/A   Clear
11:54 PM 57.9 °F - 54.0 °F 87% 29.86 in 10.0 mi SSW 6.9 mph - N/A   Clear